Location: Espelette
(43.3402°N, 1.4474°W)
Time: 15:11:07
(UTC+00:00)

Cosmos 1151 Rocket - Pass Details

Date: 19 May 2025
Orbit: 586 x 607 km, 82.5° (Epoch: 18 June)

Event Time Altitude Azimuth Distance (km) Brightness Sun altitude
Exits shadow 23:56:11 54° 338° (NNW) 716 3.6 -26.7°
Drops below altitude 10° 23:59:37 10° 4° (N) 1,919 6.6 -26.7°
Sets 00:01:51 0° 6° (N) 2,824 7.7 -26.7°
